Regional Weather Roundup
Issued by NWS

Home | Current Version | Previous Version | Graphics & Text | Print | Product List | Glossary On
Versions: 1 2 3 4 5 6 7 8 9 10 11 12 13 14 15 16 17 18 19 20 21 22 23 24 25 26 27 28 29 30 31 32 33 34 35 36 37 38 39 40 41 42 43 44 45 46 47 48 49 50
000
ASUS43 KLOT 270706
RWRIL

ILLINOIS REGIONAL WEATHER ROUNDUP
NATIONAL WEATHER SERVICE CHICAGO/ROMEOVILLE IL
100 AM CST TUE JAN 27 2015

NOTE: "FAIR" INDICATES FEW OR NO CLOUDS BELOW 12,000 FEET WITH NO
SIGNIFICANT WEATHER AND/OR OBSTRUCTIONS TO VISIBILITY.

* THESE STATIONS ARE NOT UNDER NWS QUALITY CONTROL. THEY ALSO MAY NOT
  REPORT WEATHER SUCH AS PRECIPITATION OR FOG.

ILZ001-002-007-009-015-016-024-270800-
NORTHWEST ILLINOIS

CITY           SKY/WX    TMP DP  RH WIND       PRES   REMARKS
MOLINE         MOCLDY    32  30  92 NW7       29.93R WCI  26
STERLING*      CLOUDY    28  27  93 N3        29.93R
SAVANNA*       CLOUDY    28  27  94 N3        29.95R FOG
$$

ILZ003-004-008-010-011-017-018-270800-
NORTH CENTRAL ILLINOIS

CITY           SKY/WX    TMP DP  RH WIND       PRES   REMARKS
ROCKFORD       CLOUDY    27  24  89 N5        29.94R FOG     WCI  22
FREEPORT*      FOG       26  25  97 CALM      29.94R VSB 3/4
ROCHELLE*      CLOUDY    27  27  99 CALM      29.92R FOG
DE KALB*       LGT SNOW  26  25  96 CALM      29.91R
PERU*          FOG       30  29  98 N5        29.92R VSB 3/4 WCI  25
$$

ILZ005-006-012>014-019>023-270800-
NORTHEAST ILLINOIS

CITY           SKY/WX    TMP DP  RH WIND       PRES   REMARKS
CHICAGO-OHARE  FLURRIES  27  24  89 CALM      29.92R
CHICAGO-MIDWAY LGT SNOW  29  25  85 E3        29.93R FOG
AURORA         LGT SNOW  27  24  89 NE5       29.92R FOG     WCI  22
LANSING*       MIX PCPN  25  23  93 SE5       29.93R WCI  19
JOLIET*        LGT SNOW  27  26  95 CALM      29.92R
WAUKEGAN       CLOUDY    26  23  88 CALM      29.93R
DUPAGE AIRPORT CLOUDY    26  24  92 NE3       29.91R FOG
KANKAKEE*      LGT SNOW  28  27  96 E6        29.92R WCI  21
WHEELING       CLOUDY    27  24  89 CALM      29.95R FOG
MORRIS*        LGT SNOW  29  29 100 CALM      29.91R
ROMEOVILLE*    LGT SNOW  27  27  99 NE3       29.93R
NORTHERLY ISL    N/A     27  25  92 E6          N/A  WCI  21
$$

LMZ740>746-270800-
SOUTHERN LAKE MICHIGAN

STATION/POSITION SKY/WX   TEMP    WIND        PRES    VSBY  WAVE
                          AIR SEA DIR/SP/G                  HT/PER
                          (F)     (DEG/KT/KT) (MB)    (MI)  (FT/S)
WAUKEGAN HARBOR            27        CALM       N/A
HARRISON CRIB              26     130/  8/  9   N/A
BURNHAM HARBOR             27     120/  4/  7   N/A
CALUMET HARBOR             26     140/  3/  6   N/A
MICHIGAN CITY              23     100/  6/  8   N/A
$$

ILZ025>027-034>036-040-047-049-050-058-095>099-270800-
WEST-CENTRAL ILLINOIS

CITY           SKY/WX    TMP DP  RH WIND       PRES   REMARKS
QUINCY         MOCLDY    37  34  89 NW12      29.94R WCI  29
GALESBURG*     CLOUDY    35  33  94 NW7       29.92R WCI  29
MACOMB*        CLOUDY    36  35  94 NW9       29.95R WCI  29
JACKSONVILLE*  CLOUDY    37  34  87 NW7       29.92S WCI  32
PITTSFIELD*    MOCLDY    38  35  85 NW7       29.93S WCI  33
$$

ILZ028>032-037-038-041>044-048-051>054-059>061-270800-
CENTRAL ILLINOIS

CITY           SKY/WX    TMP DP  RH WIND       PRES   REMARKS
PONTIAC        FOG       31  31 100 CALM      29.91R VSB 3/4
BLOOMINGTON    CLOUDY    31  31 100 W6        29.90R FOG     WCI  25
DECATUR        CLOUDY    32  32 100 W3        29.90R
PEORIA         CLOUDY    34  30  85 N3        29.91R
LACON*         CLOUDY    30  28  95 CALM      29.91R FOG
LINCOLN*       CLOUDY    34  32  92 CALM      29.91S FOG
SPRINGFIELD    CLOUDY    34  31  88 NW6       29.91R WCI  29
TAYLORVILLE    CLOUDY    32  30  93 CALM      29.91R
$$

ILZ033-039-045-046-055>057-062-063-270800-
EAST-CENTRAL ILLINOIS

CITY           SKY/WX    TMP DP  RH WIND       PRES   REMARKS
CHAMPAIGN      CLOUDY    30  29  96 S3        29.89R FOG
DANVILLE*      LGT RAIN  28  27  97 S3        29.88R
RANTOUL*       CLOUDY    31  30  97 S5        29.89R FOG     WCI  26
MATTOON        CLOUDY    29  28  96 SW3       29.89R FOG
PARIS*         CLOUDY    29  28  98 NE3       29.91R FOG
$$

ILZ079-100>102-270800-
SOUTHWEST ILLINOIS

CITY           SKY/WX    TMP DP  RH WIND       PRES   REMARKS
ALTON          CLOUDY    36  32  85 NW3       29.92R
BELLEVILLE     CLOUDY    33  32  96 CALM      29.91R
CAHOKIA*       MOCLDY    36  31  82 W5        29.92R WCI  32
SPARTA*        CLOUDY    35  31  85 W3        29.91R
$$

ILZ064>066-069>071-074>076-080>082-084>086-088>090-092>094-270800-
SOUTH-CENTRAL ILLINOIS

CITY           SKY/WX    TMP DP  RH WIND       PRES   REMARKS
CARBONDALE     CLOUDY    37  31  78 SW5       29.90S WCI  33
CAIRO*         CLOUDY    33  32  97 CALM      29.91S
EFFINGHAM*     CLOUDY    31  28  88 CALM      29.92R FOG
MARION         CLOUDY    37  32  81 CALM      29.91R
MT. VERNON     CLOUDY    32  27  80 CALM      29.90S
CENTRALIA*     CLOUDY    32  29  89 W3        29.90R
SALEM*         CLOUDY    34  31  89 CALM      29.90R
METROPOLIS*    CLOUDY    37  33  82 CALM      29.90R
$$

ILZ067-068-072-073-078-083-087-091-270800-
SOUTHEAST ILLINOIS

CITY           SKY/WX    TMP DP  RH WIND       PRES   REMARKS
LAWRENCEVILLE  CLOUDY    30  29  96 CALM      29.92S FOG
FLORA*         CLOUDY    31  30  96 CALM      29.91R
FAIRFIELD*     CLOUDY    32  30  94 CALM      29.89S
HARRISBURG*    CLOUDY    33  32  97 CALM      29.91S
ROBINSON*      MIX PCPN  29  29  99 SE3       29.93R
CARMI*         CLOUDY    34  34 100 CALM      29.90S FOG
$$

ABBREVIATIONS USED IN REMARKS
   TC - TEMPERATURE IN CELSIUS
  WCI - WIND CHILL INDEX
   HX - HEAT INDEX
  VSB - VISIBILITY
$$




USA.gov is the U.S. government's official web portal to all federal, state and local government web resources and services.